TimePDT,TemperatureF,Dew PointF,Humidity,Sea Level PressureIn,VisibilityMPH,Wind Direction,Wind SpeedMPH,Gust SpeedMPH,PrecipitationIn,Events,Conditions,WindDirDegrees,DateUTC
12:50 AM,50.0,6.1,17,30.18,10.0,West,4.6,-,N/A,,Clear,280,2013-04-19 07:50:00
1:50 AM,52.0,1.9,13,30.17,10.0,WSW,5.8,-,N/A,,Clear,250,2013-04-19 08:50:00
2:50 AM,48.9,5.0,17,30.17,10.0,West,8.1,-,N/A,,Clear,280,2013-04-19 09:50:00
3:50 AM,46.9,3.9,17,30.17,10.0,West,6.9,-,N/A,,Clear,280,2013-04-19 10:50:00
4:50 AM,46.0,3.9,18,30.18,10.0,West,6.9,-,N/A,,Clear,270,2013-04-19 11:50:00
5:50 AM,45.0,3.9,18,30.18,10.0,SW,3.5,-,N/A,,Clear,230,2013-04-19 12:50:00
6:50 AM,48.0,3.9,16,30.19,10.0,West,8.1,-,N/A,,Clear,260,2013-04-19 13:50:00
7:50 AM,55.0,3.9,13,30.21,10.0,West,9.2,-,N/A,,Clear,270,2013-04-19 14:50:00
8:50 AM,59.0,7.0,13,30.21,10.0,West,8.1,-,N/A,,Clear,270,2013-04-19 15:50:00
9:50 AM,66.0,6.1,9,30.20,10.0,West,10.4,-,N/A,,Clear,280,2013-04-19 16:50:00
10:50 AM,70.0,8.1,9,30.18,10.0,WNW,5.8,-,N/A,,Clear,300,2013-04-19 17:50:00
11:50 AM,73.9,9.0,8,30.16,10.0,Variable,5.8,-,N/A,,Clear,0,2013-04-19 18:50:00
12:50 PM,75.9,8.1,7,30.12,10.0,NE,5.8,-,N/A,,Clear,40,2013-04-19 19:50:00
1:50 PM,77.0,10.0,8,30.08,10.0,ENE,5.8,-,N/A,,Clear,60,2013-04-19 20:50:00
2:50 PM,78.1,9.0,7,30.05,10.0,Variable,3.5,-,N/A,,Clear,0,2013-04-19 21:50:00
3:50 PM,79.0,10.9,8,30.01,10.0,Variable,3.5,-,N/A,,Clear,0,2013-04-19 22:50:00
4:50 PM,81.0,12.0,7,29.98,10.0,NW,8.1,-,N/A,,Clear,320,2013-04-19 23:50:00
5:50 PM,80.1,12.0,8,29.96,10.0,West,11.5,-,N/A,,Clear,280,2013-04-20 00:50:00
6:50 PM,78.1,10.0,7,29.94,10.0,West,10.4,-,N/A,,Clear,270,2013-04-20 01:50:00
7:50 PM,73.0,12.0,10,29.93,10.0,Calm,Calm,-,N/A,,Clear,0,2013-04-20 02:50:00
8:50 PM,72.0,9.0,9,29.92,10.0,SSW,9.2,-,N/A,,Clear,210,2013-04-20 03:50:00
9:50 PM,70.0,19.9,15,29.93,10.0,WSW,16.1,-,N/A,,Clear,250,2013-04-20 04:50:00
10:50 PM,69.1,19.0,15,29.92,10.0,WSW,17.3,-,N/A,,Clear,250,2013-04-20 05:50:00
11:50 PM,66.9,19.9,17,29.92,10.0,WSW,18.4,-,N/A,,Clear,250,2013-04-20 06:50:00